Location: Most
(50.5133°N, 13.6207°E)
Time: 23:12:21
(UTC+02:00)

ISS - Pass Details

Date: 20 September 2019
Orbit: 411 x 421 km, 51.6° (Epoch: 17 September)

Event Time Altitude Azimuth Distance (km) Brightness Sun altitude
Rises 19:47:51 0° 192° (SSW) 2,332 0.1 -7.0°
Reaches altitude 10° 19:51:05 10° 157° (SSE) 1,475 -1.3 -7.5°
Maximum altitude 19:52:15 12° 136° (SE) 1,389 -1.6 -7.6°
Drops below altitude 10° 19:53:26 10° 115° (ESE) 1,478 -1.6 -7.8°
Enters shadow 19:53:27 10° 115° (ESE) 1,482 -1.6 -7.8°
